Location: Asheville, NC
(35.6000°N, 82.5500°W)
Time: 02:33:34
(UTC-04:00)

ITUPSAT 1 - Visible Passes

Search period start: 18 July 2018 00:00
Search period end: 28 July 2018 00:00
Orbit: 701 x 714 km, 98.6° (Epoch: 17 July)

Date Brightness Start Highest point End Pass type
(mag) Time Alt. Az. Time Alt. Az. Time Alt. Az.
18 Jul ? 03:44:58 10° ESE 03:48:15 19° ENE 03:51:32 10° NNE visible
18 Jul ? 05:21:16 10° SSW 05:25:44 40° W 05:30:13 10° NNW visible
19 Jul ? 04:27:43 10° SSE 04:32:20 53° ENE 04:36:59 10° N visible
20 Jul ? 03:36:40 10° E 03:39:21 15° ENE 03:42:03 10° NNE visible
20 Jul ? 05:12:05 10° S 05:16:42 50° W 05:21:21 10° NNW visible
21 Jul ? 04:18:55 10° SE 04:23:23 42° ENE 04:27:52 10° N visible
21 Jul ? 05:58:16 10° SW 06:01:20 17° W 06:04:25 10° NW visible
22 Jul ? 03:28:39 10° E 03:30:28 12° ENE 03:32:18 10° NE visible
22 Jul ? 05:02:58 10° S 05:07:42 64° WSW 05:12:26 10° NNW visible
23 Jul ? 04:10:11 10° SE 04:14:27 33° ENE 04:18:42 10° N visible
23 Jul ? 05:48:39 10° SW 05:52:15 21° W 05:55:53 10° NW visible
24 Jul ? 04:53:55 10° S 04:58:41 82° WSW 05:03:28 10° NNW visible
25 Jul ? 04:01:32 10° SE 04:05:30 27° ENE 04:09:29 10° NNE visible
25 Jul ? 05:39:12 10° SSW 05:43:12 27° W 05:47:13 10° NW visible
26 Jul ? 04:44:57 10° SSE 04:49:42 80° ENE 04:54:28 10° N visible
27 Jul ? 03:52:58 10° ESE 03:56:35 22° ENE 04:00:11 10° NNE visible
27 Jul ? 05:29:56 10° SSW 05:34:09 33° W 05:38:27 10° NNW visible
